Total_Precipitation_Accumulation
2.01 2.51 3.11 3.77 4.59 5.75 6.43 6.58 6.41 5.78 5.27 4.87 4.63 4.37 4.17 3.87 3.33 2.95 2.76 2.67 2.53 2.56 2.93 2.72 2.82 2.67 2.80 2.98 3.09 3.29 3.31 3.07 3.22 3.55 3.41 3.07 2.77 2.74 2.66 2.57 2.66 2.71 2.81
1.94 2.56 3.26 4.01 4.72 5.28 5.64 5.78 5.46 4.73 4.27 4.06 4.06 3.80 3.59 3.26 3.06 2.83 2.87 2.50 2.36 2.47 2.45 2.78 2.64 2.59 2.89 2.92 3.08 3.28 3.19 2.84 3.01 3.54 3.81 3.63 3.64 3.06 2.32 2.49 2.62 2.71 3.00
2.10 2.91 3.67 4.40 4.71 4.75 4.54 4.25 4.12 3.78 3.73 3.74 3.58 3.35 3.30 3.05 2.91 2.73 2.70 2.38 2.10 2.13 2.30 2.41 2.38 2.56 2.54 2.83 3.04 3.10 3.30 3.28 3.02 2.99 3.51 3.58 3.62 3.33 2.69 2.32 2.44 2.78 3.14
2.27 2.96 3.46 3.68 3.81 3.78 3.52 3.33 3.30 3.28 3.28 3.20 3.12 2.85 2.74 2.72 2.58 2.52 2.60 2.49 2.17 2.11 2.19 2.29 2.47 2.58 2.46 2.86 2.59 2.77 3.22 3.44 3.12 3.08 2.96 3.03 3.25 3.34 3.21 2.78 2.46 2.61 2.78
1.90 2.05 2.24 2.38 2.49 2.50 2.69 2.77 2.93 3.13 3.06 3.02 3.06 3.03 2.72 2.67 2.64 2.64 2.81 2.74 2.49 2.24 2.07 2.34 2.68 2.78 2.63 2.69 2.77 3.15 3.13 3.17 3.14 3.09 3.01 3.11 3.18 2.98 3.04 3.04 2.83 2.61 2.27
1.35 1.42 1.50 1.61 1.80 1.82 2.07 2.30 2.45 2.64 2.83 2.88 2.75 2.69 2.66 2.73 2.79 2.79 2.68 2.50 2.41 2.32 2.20 2.39 2.70 2.73 2.82 2.87 2.85 2.97 3.05 3.18 3.27 3.15 2.92 2.98 3.05 3.08 3.21 2.92 2.86 2.86 2.46
1.21 1.45 1.44 1.53 1.69 1.60 1.76 2.05 2.10 2.12 2.28 2.31 2.31 2.41 2.56 2.60 2.45 2.38 2.38 2.24 2.01 2.06 2.19 2.33 2.62 2.64 2.69 2.66 2.91 2.96 2.96 3.11 3.11 3.03 2.97 2.86 2.80 2.87 3.02 3.04 2.82 2.78 2.60
1.18 1.35 1.15 1.22 1.36 1.38 1.55 1.74 1.83 1.88 1.96 2.08 2.21 2.19 2.30 2.25 2.15 2.27 2.15 2.03 1.77 1.68 1.85 2.07 2.16 2.26 2.32 2.31 2.92 2.84 2.91 3.08 2.93 2.69 3.08 2.94 2.63 2.76 2.87 3.20 3.43 3.16 2.96
0.99 1.09 1.00 0.97 1.08 1.24 1.38 1.52 1.61 1.72 1.75 1.91 2.00 1.98 2.02 2.08 2.15 2.18 2.08 1.88 1.91 1.76 1.84 1.90 2.17 2.34 2.44 2.55 2.88 2.83 2.82 3.04 2.83 2.77 2.91 2.78 2.70 2.70 2.61 3.04 3.47 3.69 3.44
1.02 1.06 1.06 1.02 1.11 1.15 1.41 1.54 1.51 1.63 1.69 1.84 1.87 1.68 1.81 1.93 2.13 2.08 1.98 1.89 1.89 1.88 2.04 2.10 2.28 2.44 2.44 2.52 2.74 2.66 2.78 2.95 2.84 2.86 2.87 2.74 2.66 2.80 2.71 2.83 3.16 3.45 3.65
1.05 1.02 1.09 1.03 0.98 0.97 1.22 1.37 1.51 1.62 1.69 1.83 1.93 1.89 1.87 1.80 1.93 1.97 1.94 1.95 1.95 1.96 2.07 2.19 2.36 2.42 2.51 2.64 2.79 2.59 2.73 2.87 3.03 2.91 2.91 2.97 3.09 3.04 2.93 3.01 3.08 3.29 3.60
0.82 0.97 1.10 1.09 0.93 0.88 1.03 1.23 1.39 1.54 1.62 1.74 1.88 1.95 2.11 2.03 1.96 1.96 2.01 2.08 2.18 2.29 2.24 2.31 2.40 2.31 2.40 2.65 2.70 2.63 2.70 2.76 2.77 2.95 3.26 3.17 3.26 3.20 3.02 3.15 3.07 3.20 3.61
0.86 0.97 1.14 1.06 1.03 0.99 1.04 1.15 1.31 1.54 1.72 1.85 1.99 2.13 2.21 2.09 2.01 2.15 2.23 2.26 2.42 2.58 2.63 2.63 2.49 2.43 2.44 2.53 2.63 2.72 2.74 2.74 2.78 2.93 3.02 3.10 3.37 3.23 3.15 3.06 3.01 3.14 3.37
0.97 1.05 1.11 1.11 1.18 1.29 1.34 1.42 1.67 1.73 1.75 2.00 2.30 2.40 2.38 2.26 2.20 2.32 2.43 2.44 2.51 2.66 2.80 2.77 2.70 2.63 2.51 2.38 2.36 2.44 2.54 2.68 2.81 2.86 2.80 2.91 3.16 3.26 3.29 3.06 3.09 3.26 3.38
0.91 0.90 0.97 1.07 1.17 1.31 1.39 1.55 1.61 1.81 1.93 2.21 2.38 2.41 2.50 2.49 2.51 2.62 2.64 2.56 2.58 2.62 2.80 2.85 2.88 2.83 2.61 2.31 2.40 2.57 2.56 2.74 2.73 2.63 2.54 2.54 2.81 3.06 3.17 2.87 2.97 3.19 3.19
0.94 1.03 1.08 1.16 1.29 1.32 1.41 1.54 1.65 1.88 2.16 2.43 2.71 2.75 2.80 2.77 2.82 2.94 2.99 2.88 2.88 3.01 3.04 2.90 2.82 2.75 2.32 2.50 2.56 2.58 2.61 2.77 2.77 2.67 2.57 2.46 2.40 2.42 2.61 2.74 2.88 3.05 3.04
1.09 1.19 1.30 1.31 1.36 1.44 1.54 1.72 1.88 2.12 2.33 2.53 2.79 2.98 3.05 3.06 3.11 3.16 3.17 3.11 3.22 3.41 3.37 3.19 2.97 2.79 2.73 2.72 2.50 2.47 2.34 2.40 2.49 2.60 2.57 2.23 2.00 2.15 2.10 2.34 2.50 2.57 2.66
1.15 1.25 1.45 1.57 1.58 1.62 1.76 2.03 2.21 2.46 2.69 2.83 2.94 3.05 3.10 3.13 3.18 3.24 3.14 3.19 3.34 3.38 3.37 3.25 3.09 2.92 2.82 2.77 2.50 2.48 2.22 2.19 2.23 2.32 2.36 2.29 2.14 2.12 2.27 2.28 2.17 2.06 2.12
1.34 1.45 1.60 1.68 1.79 1.87 2.01 2.16 2.35 2.59 2.83 2.98 2.95 2.93 3.03 3.14 3.19 3.21 3.21 3.28 3.34 3.24 3.10 2.99 2.95 2.91 2.96 3.04 2.75 2.57 2.24 2.22 2.16 2.15 2.16 2.18 2.09 2.31 2.31 2.20 2.13 2.09 2.06
1.36 1.48 1.61 1.61 1.73 1.90 1.93 2.02 2.28 2.57 2.74 2.90 2.95 2.96 3.07 3.15 3.19 3.29 3.36 3.31 3.29 3.21 3.11 2.91 2.90 2.92 2.92 3.07 2.70 2.55 2.26 2.20 2.14 2.16 2.15 2.19 2.12 2.21 2.12 2.00 2.06 2.01 2.01
1.50 1.53 1.59 1.59 1.59 1.75 1.87 2.03 2.19 2.36 2.56 2.77 2.97 3.19 3.34 3.39 3.41 3.46 3.36 3.29 3.21 3.22 3.17 3.03 2.92 2.88 2.81 2.90 2.64 2.44 2.11 2.18 2.35 2.32 2.24 2.25 2.28 1.99 1.91 1.84 1.83 1.88 1.96
1.55 1.56 1.59 1.70 1.78 1.92 2.03 2.09 2.04 2.17 2.41 2.51 2.71 2.89 3.09 3.23 3.24 3.29 3.22 3.27 3.20 3.07 2.94 2.83 2.70 2.64 2.67 2.60 2.52 2.33 2.11 2.17 2.27 2.37 2.41 2.45 2.34 1.94 1.77 1.61 1.57 1.69 1.69
1.80 1.75 1.65 1.73 1.92 2.02 2.13 2.20 2.10 2.05 2.13 2.28 2.48 2.71 2.90 3.17 3.31 3.34 3.28 3.17 3.08 2.88 2.66 2.51 2.36 2.35 2.42 2.44 2.34 2.19 2.15 2.20 2.17 2.22 2.34 2.18 2.04 1.82 1.57 1.53 1.54 1.58 1.51
1.61 1.75 1.71 1.76 2.12 2.10 2.04 2.08 2.11 2.10 2.16 2.28 2.39 2.56 2.72 2.92 3.19 3.26 3.19 3.02 2.75 2.58 2.51 2.42 2.37 2.40 2.45 2.34 2.19 2.03 1.95 2.00 1.99 2.02 2.11 2.08 2.01 1.90 1.75 1.66 1.56 1.48 1.53
1.57 1.58 1.66 1.69 1.81 1.91 1.93 1.93 2.00 2.08 2.12 2.17 2.21 2.26 2.47 2.67 2.86 2.88 2.79 2.64 2.49 2.55 2.55 2.48 2.44 2.35 2.28 2.37 2.33 2.08 1.93 1.89 1.95 1.97 1.99 2.01 2.11 2.13 2.07 1.98 1.86 1.80 1.81
1.56 1.60 1.55 1.55 1.63 1.69 1.82 1.90 2.05 2.19 2.25 2.21 2.17 2.10 2.06 2.18 2.47 2.73 2.79 2.70 2.47 2.47 2.35 2.25 2.19 2.12 2.06 2.12 2.11 1.99 1.89 1.97 2.08 1.93 1.93 2.08 2.15 2.19 2.21 2.20 2.06 1.92 1.81